Starlink 32841

operational
NORAD ID: 62865 Int'l Des: 2025-022 Owner: SPXS Country: US Constellation: starlink
LEOCIRCULAR

Über Starlink 32841

Beschreibung wird geladen...

Live-Position

3D-Globus wird geladen...

Nächste Überflüge

Höhenverlauf

Altitude vs Time

uPlot chart will show altitude changes over time

Zweizeiliger Elementsatz

1 62865U 25022M 25353.44174678 .00021690 00000-0 74227-3 0 9990
2 62865 53.1567 142.3703 0001197 92.7274 267.3864 15.30201096 49607
Epoch: 19. Dez. 2025 • Age: 15 hours

Aktueller Status

Höhe 480.9 km
Geschwindigkeit 7.63 km/s
Subsatellitenpunkt 53.14°N, 130.18°E
Startdatum 2. Feb. 2025
Alter 0.8 years
Typ internet

Technische Details

Klassifizierung Payload
Masse 730.00 kg
Trockenmasse 700.00 kg
Gesamtmasse 730.00 kg
Länge 0.30 m
Durchmesser 4.10 m
Spannweite 29.00 m
Form Box + pan
Hersteller SPXS
Bus-Typ Starlink V2M
Phasenstatus In Orbit
Besitzer/Staat SPXS/US

Große Konstellationen

Loading constellations...